Accueil
METAR-TAF:

METAR-TAF

Aéroports :

Chandler Regional Airport

Chandler, Oklahoma, États-Unis

latitude: 35-43-26N, longitude: 096-49-13W, altitude: 300 m

Observation

Le bulletin a été fait il y a 20 minutes, à 10:55 UTC
Vent calme
Température -4°C
Humidité 86%
Pression 1026 hPa
Visibilité: 16.1 km
Ciel clair

METAR: KCQB 101055Z AUTO 00000KT 10SM CLR M04/M06 A3031 RMK AO2 T10441064

Heure: 05:15 (11:15 UTC)


TAF: absent

Observations et prévisions météorologiques de plus de 4000 aéroports (messages METAR et TAF).

Les stations disponibles sont représentées par des disques jaunes et rouges sur la carte.

Passer la souris dessus pour voir le nom de la station.

Cliquer dessus pour voir les observations et prévisions météorologiques.

Pour changer de carte: cliquez sur les boutons verts avec une croix noire pour zoomer, sur le bouton vert avec un tiret pour effectuer un zoom arrière, ou sur les flèches vertes pour les cartes adjacentes.


METAR-TAF: